Location: Bednik
(45.3500°N, 16.3833°E)
Time: 06:34:52
(UTC+00:00)

SL-4 R/B - Pass Details

Date: 08 August 2020
Orbit: 428 x 665 km, 51.6° (Epoch: 23 September)

Event Time Altitude Azimuth Distance (km) Brightness Sun altitude
Rises 20:43:03 0° 253° (WSW) 2,649 5.7 -21.4°
Reaches altitude 10° 20:45:22 10° 258° (WSW) 1,720 4.8 -21.6°
Maximum altitude 20:49:10 55° 337° (NNW) 582 2.4 -22.0°
Enters shadow 20:51:28 20° 50° (NE) 1,128 3.6 -22.3°
